Temp
64 64 64 65 65 65 65 65 65 64 64 64 65 64 64 65 68 68 63 67 67 70 68 65 67 65 63 60 60 55 48 44 46 49 49 53 52 50 50 48 46 48 47 49 52
62 63 64 64 64 64 65 65 64 64 64 64 64 64 64 64 66 65 70 72 71 71 66 65 64 64 59 57 57 52 46 48 51 51 51 53 53 51 49 45 43 44 48 50 49
60 61 62 63 63 64 64 64 64 64 64 63 63 64 64 62 63 63 72 72 72 69 64 62 62 61 56 56 53 50 49 53 53 55 56 54 50 50 48 45 45 43 45 46 45
60 59 61 62 62 63 64 64 64 63 63 63 63 64 63 64 54 64 70 70 70 67 65 64 63 57 53 52 55 49 53 55 56 55 55 52 53 48 48 48 50 49 48 45 44
59 59 60 60 61 62 63 64 64 63 63 63 63 64 63 60 63 67 69 69 67 66 63 61 59 54 50 50 54 49 51 54 55 55 53 54 50 50 46 44 48 48 46 44 44
59 59 60 60 61 62 63 63 64 63 63 63 64 63 61 56 65 67 66 66 65 64 60 61 56 56 52 51 49 50 51 53 54 54 53 52 46 46 46 44 45 46 43 43 44
60 59 59 60 60 61 62 63 63 63 63 63 64 65 61 62 64 65 67 61 61 61 60 58 57 55 53 51 53 51 49 51 51 52 52 51 47 46 47 45 44 43 42 43 44
60 59 59 59 60 61 61 62 62 62 63 64 64 61 58 64 62 65 63 62 63 63 61 58 58 56 52 52 52 47 44 42 48 50 49 51 44 50 46 44 43 41 39 42 43
59 59 59 60 59 60 61 61 62 63 65 64 59 59 55 65 61 62 61 60 60 60 60 65 58 51 52 45 43 42 38 38 46 50 47 47 43 48 45 45 42 40 39 41 41
59 59 59 60 59 60 60 62 63 63 64 65 67 57 57 58 60 61 60 61 58 57 57 55 50 46 44 44 38 39 38 40 40 46 44 42 45 46 43 43 43 41 39 40 40
59 59 59 60 60 61 57 61 60 59 60 57 55 55 56 59 60 58 60 58 57 55 48 49 46 43 46 46 44 41 39 39 42 48 44 43 45 52 44 41 39 36 38 39 40
59 59 59 60 60 60 55 54 49 50 51 52 53 54 57 57 54 57 60 55 53 49 48 46 44 48 47 47 44 41 38 38 43 43 43 41 41 48 44 43 44 42 40 39 39
59 58 58 59 59 56 51 49 52 50 46 52 54 54 55 58 54 55 58 54 50 47 46 44 47 49 47 42 42 39 38 37 40 40 41 37 34 41 40 42 43 44 43 42 41
59 58 58 58 56 51 50 51 52 50 42 49 50 53 55 54 50 55 55 53 48 48 46 44 46 46 43 42 43 37 41 40 39 35 31 38 30 36 39 41 38 40 39 40 39
58 58 58 59 48 50 50 51 49 51 28 50 49 57 54 51 50 50 53 52 47 47 46 45 44 43 42 44 44 42 41 37 36 33 29 30 27 32 34 37 43 38 39 40 40
59 58 57 54 49 48 49 48 50 42 31 46 49 49 48 48 49 50 50 53 49 46 42 44 44 45 44 42 42 43 38 36 31 29 22 30 30 28 34 38 39 37 39 39 37
59 58 54 53 49 48 49 49 38 31 47 46 45 46 45 45 46 47 45 43 43 38 37 39 41 40 43 39 39 39 35 27 24 20 25 29 26 39 43 44 41 39 38 37 38
58 57 54 53 49 49 48 44 29 39 43 46 46 44 43 46 44 44 41 39 43 40 35 36 38 39 42 41 39 35 37 27 18 18 29 27 26 35 39 37 36 38 39 38 36
56 52 52 50 50 50 44 31 35 40 46 46 44 39 39 43 44 40 37 37 44 44 42 33 33 37 37 38 40 35 32 35 27 5 12 27 30 37 34 34 32 34 34 34 35
52 51 52 52 51 48 38 41 40 47 47 45 44 45 38 40 39 38 38 41 44 44 43 42 36 34 35 36 35 34 38 29 24 14 10 21 26 34 36 35 31 30 32 33 34
51 45 48 53 53 46 36 37 43 49 50 47 42 42 41 40 40 36 40 42 43 40 41 39 39 32 34 32 33 31 30 31 30 25 17 13 30 36 39 37 31 32 34 34 33
49 41 46 55 42 39 38 39 46 45 52 47 45 45 45 42 39 37 38 48 46 43 40 39 35 27 30 31 33 33 35 36 27 21 20 21 32 40 39 39 34 34 35 34 34
46 46 47 47 36 37 35 39 46 42 47 48 45 45 46 44 41 39 44 46 45 44 39 40 32 21 27 29 30 30 32 34 32 28 28 22 32 36 36 32 34 34 34 34 32
45 38 42 43 44 40 39 38 39 44 47 46 45 45 41 40 46 42 39 41 40 42 46 48 34 32 34 35 30 26 30 32 34 26 31 32 35 43 44 41 34 32 32 32 32
45 41 43 36 39 41 41 39 41 38 44 47 45 46 45 41 43 42 46 36 36 40 38 40 35 32 41 43 33 34 37 29 29 34 31 37 37 43 47 49 42 39 34 31 31
45 43 42 45 42 39 40 38 38 41 40 40 41 44 47 43 46 44 44 40 40 30 33 33 33 31 32 35 33 32 37 36 34 36 36 37 35 48 51 51 47 36 33 31 31
52 50 46 44 41 38 38 39 40 43 44 47 45 44 42 46 53 54 48 47 45 40 30 27 27 24 29 32 29 25 35 36 39 40 38 31 39 47 45 37 36 32 33 32 31
MSLP
1019.47 1019.04 1018.56 1018.01 1017.62 1017.31 1016.89 1016.43 1016.01 1015.54 1015.16 1014.81 1014.53 1014.30 1014.11 1013.88 1013.54 1013.54 1014.21 1014.50 1014.38 1013.91 1013.66 1013.36 1013.05 1013.25 1013.34 1013.87 1014.23 1014.81 1015.67 1016.32 1016.08 1016.07 1015.82 1015.80 1016.67 1017.75 1018.51 1019.30 1020.15 1020.61 1020.84 1020.99 1021.64
1019.72 1019.31 1018.84 1018.29 1017.76 1017.36 1016.99 1016.56 1016.06 1015.55 1015.13 1014.80 1014.58 1014.28 1014.17 1014.10 1013.90 1014.04 1014.12 1014.12 1014.03 1013.86 1013.68 1013.66 1013.54 1013.58 1013.93 1014.17 1014.54 1015.01 1015.78 1015.70 1015.49 1015.46 1015.65 1015.87 1016.60 1017.69 1018.74 1019.84 1020.77 1021.24 1021.52 1021.80 1022.27
1019.94 1019.51 1019.03 1018.44 1017.90 1017.30 1016.93 1016.54 1016.15 1015.66 1015.18 1014.76 1014.61 1014.41 1014.16 1014.13 1014.16 1014.06 1013.88 1013.79 1013.70 1013.70 1013.89 1013.86 1013.77 1013.85 1014.22 1014.38 1014.74 1014.99 1015.28 1015.35 1015.39 1015.34 1015.59 1016.18 1017.00 1017.75 1018.69 1019.94 1019.83 1020.45 1021.60 1022.09 1022.34
1020.06 1019.67 1019.07 1018.47 1017.91 1017.26 1016.67 1016.30 1016.08 1015.64 1015.25 1014.78 1014.53 1014.38 1014.12 1014.13 1014.42 1013.81 1013.74 1013.67 1013.44 1013.39 1013.62 1013.72 1013.84 1014.41 1014.78 1014.98 1014.85 1015.03 1015.06 1015.22 1015.54 1015.45 1015.82 1016.43 1016.90 1017.97 1018.51 1018.62 1018.70 1019.74 1020.80 1021.81 1022.48
1020.24 1019.73 1019.10 1018.47 1017.84 1017.26 1016.63 1016.11 1015.79 1015.48 1015.15 1014.83 1014.45 1014.32 1014.26 1014.34 1013.99 1013.75 1013.63 1013.54 1013.41 1013.55 1014.10 1014.20 1014.42 1014.85 1015.14 1015.20 1015.05 1015.07 1015.24 1015.23 1015.40 1015.59 1015.75 1016.19 1017.00 1017.92 1018.36 1018.79 1019.26 1020.36 1021.33 1021.85 1022.12
1020.27 1019.85 1019.23 1018.57 1017.89 1017.21 1016.53 1015.93 1015.54 1015.20 1014.92 1014.75 1014.36 1014.38 1014.44 1014.65 1013.97 1013.86 1013.72 1013.70 1013.97 1014.07 1014.47 1014.56 1014.92 1015.00 1015.28 1015.44 1015.53 1015.48 1015.51 1015.51 1015.57 1015.85 1016.03 1016.48 1017.39 1018.02 1018.53 1019.43 1020.12 1020.70 1021.31 1021.79 1021.97
1020.17 1019.86 1019.32 1018.73 1017.90 1017.17 1016.40 1015.65 1015.31 1014.91 1014.60 1014.60 1014.40 1014.16 1014.50 1014.39 1014.10 1014.05 1013.84 1014.18 1014.39 1014.54 1014.81 1015.04 1015.10 1015.29 1015.51 1015.66 1015.74 1015.82 1015.91 1015.67 1015.65 1015.87 1016.18 1016.62 1017.61 1017.66 1018.09 1019.45 1020.21 1020.75 1021.22 1021.67 1021.83
1020.10 1019.79 1019.30 1018.71 1018.03 1017.21 1016.27 1015.30 1014.91 1014.60 1014.31 1014.58 1014.58 1014.28 1014.29 1014.15 1014.19 1014.20 1014.26 1014.48 1014.52 1014.67 1015.03 1015.24 1015.26 1015.55 1015.77 1015.85 1016.13 1016.51 1016.67 1016.72 1015.96 1016.20 1016.39 1016.90 1016.58 1016.77 1017.79 1018.96 1020.02 1020.76 1021.21 1021.34 1021.56
1020.14 1019.69 1019.26 1018.71 1018.04 1017.29 1016.26 1015.11 1014.47 1014.28 1014.24 1014.59 1014.70 1014.41 1014.52 1014.28 1014.35 1014.31 1014.45 1014.66 1014.83 1015.09 1015.32 1015.42 1015.58 1016.36 1016.49 1016.73 1017.17 1017.63 1017.69 1017.67 1016.87 1016.29 1016.74 1017.28 1016.80 1016.75 1017.76 1018.74 1019.74 1020.36 1020.91 1021.34 1021.62
1020.12 1019.71 1019.21 1018.67 1018.03 1017.35 1016.20 1014.66 1014.00 1014.15 1014.32 1014.40 1014.48 1014.95 1014.80 1014.39 1014.34 1014.33 1014.52 1014.72 1014.96 1015.20 1015.61 1015.83 1016.47 1016.91 1017.41 1017.49 1017.91 1018.01 1018.12 1017.85 1017.59 1016.90 1017.14 1017.36 1016.76 1016.98 1017.71 1018.42 1018.72 1019.52 1020.44 1020.99 1021.29
1020.01 1019.66 1019.19 1018.63 1018.09 1017.40 1016.51 1014.91 1014.89 1015.12 1014.87 1014.65 1014.60 1014.69 1014.62 1014.53 1014.56 1014.65 1014.61 1014.80 1015.01 1015.36 1015.97 1016.44 1017.14 1017.23 1016.88 1017.01 1017.28 1017.74 1018.10 1018.29 1017.36 1017.15 1017.48 1016.97 1016.95 1015.87 1016.78 1017.74 1018.15 1018.99 1019.51 1019.87 1020.03
1019.75 1019.52 1019.26 1018.74 1018.15 1017.43 1017.14 1017.36 1017.89 1018.15 1016.52 1015.00 1014.82 1014.79 1014.62 1014.60 1014.73 1014.75 1014.77 1015.09 1015.26 1015.73 1016.19 1016.95 1016.86 1016.38 1016.72 1016.82 1017.37 1017.92 1018.33 1018.01 1017.47 1017.37 1017.76 1016.83 1016.85 1015.86 1015.89 1016.07 1016.18 1016.88 1017.87 1018.68 1019.65
1019.64 1019.45 1019.23 1018.80 1018.14 1017.66 1018.08 1018.38 1018.31 1018.31 1017.74 1015.20 1014.65 1014.45 1014.57 1014.74 1014.52 1014.56 1014.70 1014.83 1015.23 1015.90 1016.31 1016.65 1016.24 1016.37 1016.76 1017.08 1017.64 1018.00 1018.33 1018.11 1018.21 1018.10 1017.74 1017.34 1016.23 1015.46 1014.70 1014.91 1015.16 1015.83 1016.77 1017.71 1018.32
1019.58 1019.45 1019.21 1018.70 1018.41 1018.74 1018.72 1018.81 1018.54 1018.55 1018.09 1015.37 1014.73 1014.12 1014.46 1014.54 1014.71 1014.47 1014.57 1014.76 1015.29 1015.65 1016.43 1016.56 1016.26 1016.61 1017.08 1017.28 1017.63 1018.07 1017.63 1018.28 1018.88 1019.46 1019.25 1018.65 1016.58 1015.50 1014.82 1014.52 1014.63 1015.18 1015.88 1016.50 1017.55
1019.41 1019.35 1019.25 1018.98 1019.49 1019.30 1019.30 1018.84 1018.70 1018.77 1017.59 1014.98 1014.62 1014.55 1014.56 1015.01 1014.98 1014.91 1014.88 1014.77 1015.17 1015.72 1016.50 1015.92 1016.37 1016.84 1017.14 1016.98 1017.27 1017.64 1017.99 1018.78 1019.33 1019.99 1020.01 1019.10 1019.00 1015.25 1015.11 1014.70 1013.34 1014.02 1014.58 1015.33 1016.39
1018.94 1019.08 1019.29 1019.26 1019.28 1019.46 1019.40 1019.13 1018.95 1019.05 1016.78 1014.58 1014.21 1014.25 1014.76 1014.86 1014.95 1015.19 1015.21 1015.19 1015.61 1015.99 1016.33 1016.24 1016.42 1016.57 1016.59 1016.90 1017.30 1017.87 1018.50 1019.19 1020.31 1020.89 1020.51 1018.32 1018.22 1015.53 1014.38 1012.92 1012.59 1012.65 1013.39 1014.66 1015.56
1018.47 1018.67 1019.18 1019.29 1019.40 1019.25 1019.37 1019.62 1019.68 1017.89 1015.48 1014.55 1014.32 1014.44 1014.54 1014.92 1015.10 1015.26 1015.51 1015.69 1015.85 1016.58 1016.74 1016.68 1016.49 1016.51 1016.87 1017.54 1017.90 1018.37 1019.55 1020.73 1021.33 1021.74 1019.80 1018.62 1018.33 1013.45 1012.52 1011.93 1012.03 1012.49 1013.46 1014.29 1015.18
1018.10 1018.39 1018.64 1018.72 1019.05 1019.33 1019.50 1019.96 1018.73 1015.98 1014.67 1013.74 1013.98 1014.49 1014.72 1014.63 1014.92 1015.29 1015.67 1015.93 1015.54 1015.67 1016.66 1016.86 1016.42 1016.63 1016.77 1016.91 1017.23 1018.53 1019.27 1020.96 1021.84 1022.07 1020.09 1019.05 1016.17 1012.28 1011.52 1011.58 1012.15 1012.91 1013.24 1014.37 1015.26
1017.95 1018.49 1018.32 1018.30 1018.89 1019.25 1019.80 1019.00 1015.72 1015.39 1014.13 1013.68 1014.12 1014.42 1014.49 1014.32 1014.71 1015.41 1015.62 1015.21 1014.51 1014.66 1015.38 1016.16 1016.38 1016.51 1016.94 1017.12 1017.53 1018.89 1019.54 1019.89 1021.04 1023.13 1021.68 1017.40 1013.91 1011.98 1011.28 1011.42 1012.13 1012.54 1013.21 1013.76 1014.61
1017.99 1017.99 1017.42 1017.48 1018.25 1019.20 1019.47 1016.40 1015.00 1013.80 1013.35 1013.40 1013.42 1013.28 1013.74 1014.11 1014.94 1015.25 1014.84 1013.71 1013.75 1013.38 1013.23 1014.60 1016.18 1016.67 1017.45 1017.79 1018.33 1018.47 1019.09 1020.42 1021.83 1022.76 1021.23 1016.54 1013.78 1011.33 1010.90 1011.28 1011.86 1013.09 1013.21 1013.70 1014.47
1017.79 1017.66 1016.72 1016.57 1017.86 1018.41 1016.84 1015.54 1014.26 1013.32 1013.06 1013.21 1012.71 1012.83 1013.04 1013.37 1013.77 1014.19 1013.58 1013.07 1012.96 1013.71 1014.05 1014.77 1015.92 1017.26 1017.86 1017.72 1017.68 1019.10 1019.15 1019.82 1020.59 1020.68 1019.99 1017.78 1010.74 1008.11 1008.81 1009.68 1010.66 1011.52 1012.29 1013.13 1013.76
1016.84 1017.28 1016.87 1016.84 1017.36 1016.00 1014.40 1013.67 1013.20 1012.58 1012.53 1012.42 1012.06 1011.91 1012.13 1012.72 1013.28 1013.43 1013.03 1011.88 1011.72 1012.63 1014.19 1014.61 1015.42 1016.65 1016.26 1016.80 1016.96 1017.13 1017.20 1018.01 1019.00 1018.59 1017.97 1017.01 1008.14 1006.51 1007.48 1008.44 1009.51 1010.53 1011.54 1012.50 1013.25
1015.09 1015.96 1016.62 1016.78 1015.27 1014.43 1013.69 1012.60 1012.34 1011.79 1011.47 1011.40 1011.28 1011.13 1011.27 1011.52 1012.34 1011.64 1011.10 1010.62 1011.45 1012.13 1012.51 1013.94 1014.68 1015.79 1015.99 1016.91 1017.11 1016.77 1016.34 1016.11 1016.28 1016.48 1014.72 1015.11 1005.98 1005.99 1006.83 1007.84 1008.90 1009.85 1010.85 1011.86 1012.94
1013.60 1014.62 1015.18 1015.16 1013.24 1013.14 1013.19 1012.00 1011.19 1010.35 1010.59 1010.54 1009.96 1010.21 1010.70 1010.40 1010.10 1009.91 1010.64 1011.15 1011.66 1011.77 1011.86 1012.34 1012.81 1013.03 1012.80 1012.63 1013.55 1015.41 1014.61 1014.81 1015.06 1014.73 1011.37 1009.09 1006.79 1003.74 1006.37 1007.05 1008.27 1009.07 1009.91 1010.78 1012.05
1010.59 1010.56 1011.53 1011.64 1011.12 1011.59 1011.93 1010.04 1009.51 1009.97 1009.84 1009.64 1009.46 1008.38 1008.81 1009.38 1009.33 1009.08 1009.72 1010.98 1011.92 1012.09 1012.52 1012.81 1012.41 1012.59 1011.23 1011.30 1012.28 1012.67 1012.05 1012.97 1012.95 1010.11 1010.86 1005.07 1006.29 1003.65 1004.10 1004.28 1006.21 1007.08 1008.62 1010.06 1011.07
1008.53 1008.65 1009.30 1008.69 1009.18 1010.46 1010.74 1008.16 1008.51 1008.53 1008.94 1008.15 1007.68 1008.03 1008.35 1007.22 1006.47 1007.27 1009.04 1010.19 1011.03 1012.78 1012.83 1012.85 1012.14 1012.10 1011.49 1011.31 1012.04 1012.10 1008.79 1010.35 1009.32 1008.23 1008.13 1006.84 1003.62 1001.82 1001.86 1004.06 1005.16 1006.30 1007.72 1008.99 1010.11
1006.99 1007.18 1007.61 1007.07 1007.71 1008.39 1006.63 1005.89 1006.22 1008.60 1007.72 1006.92 1006.96 1007.52 1006.82 1005.49 1006.55 1006.19 1007.54 1008.62 1009.46 1010.43 1011.88 1012.78 1012.46 1012.54 1010.89 1011.34 1012.12 1010.54 1005.47 1007.56 1007.04 1004.41 1005.91 1005.17 1001.20 1000.77 1002.14 1003.69 1004.59 1005.61 1007.00 1008.11 1009.44
Wind_Speed
17 17 17 17 17 16 15 14 13 13 11 11 10 8 9 10 6 5 5 4 6 13 8 5 4 6 3 3 3 3 5 1 4 7 4 3 4 2 1 6 3 4 4 6 9
19 18 18 18 18 16 14 14 13 12 12 10 9 8 7 8 2 5 1 6 8 7 5 6 6 6 3 2 3 5 4 4 2 4 5 3 4 8 5 4 3 4 5 6 5
19 20 20 19 19 18 15 13 12 12 11 10 8 7 6 3 1 2 1 6 7 1 1 1 0 2 3 2 3 2 3 4 3 3 5 4 4 4 8 6 10 13 12 8 7
18 19 20 20 20 20 18 15 12 11 11 10 8 6 5 0 2 2 4 5 5 5 1 4 6 5 3 3 4 2 1 3 5 2 4 6 7 4 6 4 5 15 15 7 8
18 19 19 19 20 21 20 18 14 11 11 9 5 4 1 2 5 2 6 6 3 3 5 4 5 2 1 2 4 1 1 1 5 6 4 5 3 6 7 1 8 13 8 9 8
17 19 18 18 19 21 21 20 17 14 11 8 2 1 2 3 1 5 4 3 5 4 3 5 2 1 1 0 0 2 2 4 4 6 5 5 1 2 4 5 9 11 10 9 10
17 19 19 19 19 20 21 21 17 16 11 6 3 2 3 7 3 4 5 2 3 2 2 2 2 2 2 3 3 2 6 6 5 6 5 5 5 11 8 10 12 10 9 9 9
13 16 18 20 21 22 23 22 17 15 6 4 3 2 5 1 1 2 2 3 4 4 4 2 2 3 1 1 6 5 4 5 1 5 1 6 11 6 14 17 15 11 9 10 9
14 14 16 19 21 23 25 26 18 5 3 3 1 2 4 1 1 0 2 2 3 3 4 2 3 3 5 4 5 6 4 3 10 8 4 6 9 3 11 14 13 13 12 10 8
14 15 16 19 21 22 28 24 9 2 2 2 1 3 0 3 2 0 2 2 2 3 3 3 6 3 3 4 4 5 5 5 7 2 4 5 17 6 10 14 18 14 12 11 11
13 14 16 18 20 23 14 7 8 5 6 5 3 3 1 1 1 1 2 2 2 3 2 2 4 5 9 8 4 2 4 8 5 5 5 9 13 22 11 12 12 11 14 15 15
11 13 16 18 20 22 3 4 3 1 9 1 2 4 3 1 1 3 3 5 4 6 3 4 6 5 1 5 3 4 4 9 10 2 7 9 11 19 9 12 20 21 19 17 12
11 11 14 17 22 5 3 2 0 2 1 7 4 4 4 6 6 6 7 5 4 5 6 7 3 4 3 3 3 5 6 6 8 7 6 8 6 11 3 8 7 13 14 15 18
11 9 11 18 2 4 3 3 2 2 4 8 4 3 3 2 3 2 0 3 2 10 7 6 1 5 5 5 7 6 4 3 5 4 5 4 12 5 5 13 10 13 16 18 16
11 9 7 4 4 3 2 2 2 3 4 5 2 0 2 4 3 1 1 3 6 7 6 8 8 6 6 8 8 9 2 2 3 5 4 4 5 8 2 11 19 15 19 18 17
9 9 4 0 2 2 2 3 2 6 10 4 3 6 4 2 1 2 1 5 2 4 2 6 0 5 7 2 4 4 2 2 4 2 2 6 9 5 6 10 7 6 16 16 17
8 8 3 1 1 2 1 3 3 6 4 5 6 5 4 7 4 6 6 5 8 4 6 1 5 1 3 3 2 4 5 5 6 3 9 3 4 13 11 14 10 9 12 15 15
10 6 5 3 4 3 3 5 9 9 9 2 4 3 7 8 5 6 5 5 7 3 4 5 10 9 6 7 7 6 8 8 8 5 8 1 12 9 7 7 7 8 10 12 13
6 2 3 4 6 3 4 7 11 9 8 9 3 4 6 5 5 6 9 7 10 13 12 7 9 1 1 1 3 5 5 1 2 2 4 6 9 9 5 9 5 7 10 15 15
2 3 5 7 9 4 3 19 9 9 5 3 13 11 9 8 8 8 9 5 7 15 1 6 6 1 2 1 3 4 5 5 3 3 8 8 11 17 9 12 5 8 13 12 12
3 3 2 13 5 4 13 12 8 10 6 9 8 6 9 9 9 7 8 4 6 4 2 5 4 3 4 9 11 3 4 1 3 6 7 4 15 8 9 11 12 15 14 14 15
4 6 2 9 8 5 15 8 7 6 17 11 5 9 11 10 8 8 12 12 11 11 11 7 6 6 14 1 2 2 10 14 8 8 4 3 28 10 8 10 11 13 14 12 12
5 5 2 1 11 14 5 6 14 10 14 14 12 10 7 10 8 11 13 6 11 12 14 11 5 2 7 3 2 7 7 7 2 2 18 11 24 5 4 1 10 10 11 12 12
5 6 5 8 11 12 15 13 14 9 22 8 8 9 6 10 11 8 6 5 5 6 3 15 8 11 18 11 8 7 11 12 17 9 23 30 34 35 27 22 9 10 12 14 14
9 11 10 9 21 23 12 7 23 16 12 20 16 25 17 13 18 23 17 0 2 5 4 10 16 9 24 20 6 7 15 15 19 28 20 39 32 33 31 30 13 17 12 13 15
7 9 3 13 12 26 24 35 31 16 14 15 22 14 23 29 25 18 21 9 17 2 8 4 11 7 17 8 6 14 29 20 26 30 27 31 42 39 37 26 23 11 14 16 16
7 4 6 10 18 17 29 37 34 21 22 22 20 19 23 32 26 25 7 9 11 14 12 9 7 6 22 4 6 17 22 28 29 32 21 30 42 38 29 13 10 7 14 17 17
Wind_Direction
358 357 354 355 353 350 348 346 346 343 345 344 346 345 344 343 334 37 44 288 307 315 327 290 43 360 53 60 49 119 62 130 160 153 191 209 135 32 64 97 43 327 141 155 142
354 353 353 352 349 346 343 339 336 336 336 337 338 337 341 343 62 53 215 309 303 319 20 28 358 2 33 42 25 80 97 198 211 167 171 199 168 158 133 134 52 39 47 92 111
351 350 348 349 345 343 341 339 329 328 328 331 327 329 339 338 332 210 279 326 326 333 175 172 298 54 47 1 3 184 162 175 209 190 157 182 137 153 132 228 196 181 169 160 154
349 346 345 344 342 340 337 338 332 324 321 323 326 340 339 125 247 171 343 340 358 124 36 13 25 42 54 8 336 10 340 163 173 230 154 184 134 176 207 235 184 162 160 148 150
343 342 339 339 338 337 334 333 333 327 319 314 322 349 19 19 253 12 359 0 36 82 61 43 41 49 41 310 339 97 308 252 170 183 224 136 198 212 237 226 121 126 142 153 151
338 336 333 334 335 333 331 330 332 326 319 300 273 324 108 239 76 20 7 45 40 40 43 46 97 142 99 265 112 314 265 266 223 207 200 195 167 42 192 138 126 150 166 168 165
334 333 331 330 332 330 326 324 326 320 316 280 219 147 122 235 1 22 41 74 35 43 77 73 117 84 115 344 348 337 330 327 212 191 218 136 271 235 151 161 168 180 176 178 187
322 329 326 329 329 328 324 317 321 319 323 234 215 139 221 11 310 7 34 65 60 45 80 94 76 101 69 220 14 23 51 352 298 145 206 131 263 263 165 169 190 190 186 186 190
315 320 324 328 328 325 321 311 309 297 113 167 244 144 260 335 222 36 52 106 83 67 46 77 63 74 23 67 10 12 274 251 312 198 123 186 267 257 175 188 194 198 193 192 185
313 317 322 327 326 325 321 303 291 104 130 184 347 34 98 222 160 53 64 89 119 104 56 53 51 56 35 73 252 268 286 255 238 295 208 232 266 251 202 201 209 197 192 197 194
308 317 321 326 326 325 337 349 16 349 35 212 186 229 226 318 17 172 54 101 107 71 200 21 65 232 229 191 180 205 232 247 245 236 226 235 251 271 207 217 221 201 199 202 202
305 319 322 321 323 323 326 59 59 187 305 165 217 269 225 172 264 217 132 159 154 191 136 28 230 215 175 142 182 219 272 269 282 244 196 259 247 272 211 222 213 207 202 201 193
306 319 320 320 319 1 22 82 266 311 249 293 210 188 198 145 209 206 156 164 162 160 187 174 229 128 182 177 200 220 198 245 240 336 277 320 257 248 280 257 240 219 208 205 194
298 309 319 324 39 325 2 349 27 3 44 269 243 269 116 164 264 134 188 146 179 195 166 228 233 183 212 238 155 277 212 270 293 349 247 42 291 256 252 270 224 214 200 201 189
286 289 311 63 294 339 296 359 21 53 315 258 212 323 105 170 129 256 344 62 176 177 127 243 169 194 210 217 161 223 109 213 217 245 332 227 252 257 58 276 260 215 215 204 192
269 278 311 147 115 275 331 0 37 51 248 252 144 173 147 212 224 101 102 50 40 120 329 246 46 179 214 142 166 112 22 53 54 77 286 225 189 238 203 217 256 218 213 193 189
253 255 183 96 282 138 74 29 29 176 280 225 215 173 190 193 213 180 173 177 176 142 225 290 218 220 172 144 87 101 70 323 326 341 236 144 236 251 247 249 236 229 207 201 187
240 181 215 192 139 127 54 64 215 217 219 88 138 108 190 159 234 187 166 225 238 101 111 205 280 174 182 206 178 171 164 165 244 238 284 202 246 250 237 282 283 260 212 194 187
151 180 192 205 149 90 86 217 198 188 206 167 95 173 226 229 190 158 204 208 204 169 185 172 266 127 200 92 129 170 184 163 58 98 344 239 286 291 290 280 276 212 177 192 190
170 226 212 155 145 105 144 233 213 196 147 146 207 183 198 206 174 188 182 195 227 195 133 210 287 152 121 120 23 146 159 87 9 266 266 266 273 246 244 262 192 222 218 201 190
176 246 286 139 135 177 217 217 213 235 184 184 215 239 211 186 195 207 219 244 207 131 103 134 150 201 126 206 174 129 222 154 144 169 201 298 267 202 213 217 203 213 213 200 198
162 233 170 158 192 215 227 187 199 217 229 249 217 222 205 187 207 227 217 216 159 155 167 201 153 209 214 355 9 230 199 180 189 232 242 139 261 167 195 234 182 213 209 204 201
193 203 163 258 222 217 240 250 220 188 195 211 226 196 188 198 235 194 219 194 160 158 172 174 219 300 321 11 353 224 207 218 46 95 229 214 261 69 356 280 211 216 206 202 197
166 193 179 206 233 231 227 235 229 220 237 219 218 179 171 224 220 253 232 215 200 219 171 162 185 180 230 218 127 187 214 207 212 232 253 240 264 267 269 261 229 218 204 197 191
177 208 186 200 218 221 211 240 231 226 218 208 241 225 212 233 230 238 246 83 218 223 179 178 237 192 246 250 173 220 232 190 207 229 233 263 261 266 268 269 255 223 202 189 187
208 212 204 229 185 209 218 234 241 233 188 215 231 212 223 230 217 235 225 202 224 63 169 180 244 169 256 227 200 264 256 236 229 246 249 258 266 265 268 284 275 221 192 191 194
213 201 219 219 221 204 216 230 236 232 242 235 227 226 234 233 233 241 231 236 213 194 184 164 170 145 250 175 80 270 254 237 246 244 232 245 250 265 276 246 235 202 194 194 185